This is the latest recevied weather packets stored in our database for station/object AD8BW. If no packets are shown the sender has not sent any weather packets the latest 10 day(s).
| Time | Temp. | Humidity | Pressure | Rain* | Wind** | Luminosity | Snow |
|---|---|---|---|---|---|---|---|
| 1788576456 | 21.11° C | 92% | 1015.1 hPa | 0 mm | - | 0 W/m² | - |
| 1788575856 | 21.67° C | 92% | 1015 hPa | 0 mm | - | 0 W/m² | - |
| 1788575252 | 21.67° C | 92% | 1015 hPa | 0 mm | - | 0 W/m² | - |
| 1788574651 | 21.67° C | 92% | 1015.1 hPa | 0 mm | - | 0 W/m² | - |
| 1788574053 | 21.67° C | 91% | 1015.1 hPa | 0 mm | - | 0 W/m² | - |
| 1788573452 | 21.67° C | 91% | 1015.1 hPa | 0 mm | - | 0 W/m² | - |
| 1788572850 | 21.67° C | 91% | 1015.4 hPa | 0 mm | - | 0 W/m² | - |
| 1788572249 | 21.67° C | 91% | 1015.2 hPa | 0 mm | - | 0 W/m² | - |
| 1788571649 | 22.22° C | 91% | 1015.2 hPa | 0 mm | - | 0 W/m² | - |
| 1788571053 | 22.22° C | 90% | 1015.1 hPa | 0 mm | - | 0 W/m² | - |
| 1788570451 | 22.78° C | 90% | 1015 hPa | 0 mm | - | 0 W/m² | - |
| 1788569845 | 22.78° C | 89% | 1014.7 hPa | 0 mm | - | 0 W/m² | - |
| 1788569242 | 23.33° C | 88% | 1014.7 hPa | 0 mm | - | 0 W/m² | - |
| 1788568642 | 23.89° C | 88% | 1014.7 hPa | 0 mm | - | 0 W/m² | - |
| 1788568043 | 23.89° C | 88% | 1014.6 hPa | 0 mm | - | 0 W/m² | - |
| 1788567442 | 23.89° C | 87% | 1014.5 hPa | 0 mm | - | 0 W/m² | - |
| 1788566842 | 23.89° C | 86% | 1014.3 hPa | 0 mm | - | 0 W/m² | - |
| 1788566239 | 24.44° C | 87% | 1014.3 hPa | 0 mm | - | 0 W/m² | - |
| 1788565674 | 24.44° C | 86% | 1014.3 hPa | 0 mm | - | 0 W/m² | - |
| 1788565049 | 24.44° C | 86% | 1014.3 hPa | 0 mm | - | 5 W/m² | - |
| 1788564441 | 24.44° C | 86% | 1014.1 hPa | 0 mm | - | 7 W/m² | - |
| 1788563836 | 24.44° C | 86% | 1014.1 hPa | 0 mm | - | 9 W/m² | - |
| 1788563234 | 24.44° C | 86% | 1013.9 hPa | 0 mm | - | 18 W/m² | - |
| 1788562636 | 24.44° C | 86% | 1013.9 hPa | 0 mm | - | 19 W/m² | - |
| 1788562033 | 24.44° C | 85% | 1013.7 hPa | 0 mm | - | 23 W/m² | - |
* Rain latest hour (hover to see other rain measurements)
** Current wind speed in m/s (hover to see current wind gust speed)